This is the latest recevied weather packets stored in our database for station/object KA9CBS. If no packets are shown the sender has not sent any weather packets the latest 10 day(s).
| Time | Temp. | Humidity | Pressure | Rain* | Wind** | Luminosity | Snow |
|---|---|---|---|---|---|---|---|
| 1777556753 | 12.22° C | 66% | 1020.1 hPa | 0 mm | - | 294 W/m² | - |
| 1777556450 | 11.67° C | 66% | 1020.2 hPa | 0 mm | - | 277 W/m² | - |
| 1777556149 | 11.11° C | 69% | 1020.3 hPa | 0 mm | - | 269 W/m² | - |
| 1777555845 | 11.11° C | 69% | 1020.4 hPa | 0 mm | - | 252 W/m² | - |
| 1777555541 | 11.11° C | 72% | 1020.3 hPa | 0 mm | - | 237 W/m² | - |
| 1777555238 | 11.11° C | 73% | 1020.6 hPa | 0 mm | - | 219 W/m² | - |
| 1777554935 | 10.56° C | 79% | 1020.1 hPa | 0 mm | - | 198 W/m² | - |
| 1777554632 | 10.56° C | 79% | 1020.5 hPa | 0 mm | - | 184 W/m² | - |
| 1777554328 | 10° C | 78% | 1020.4 hPa | 0 mm | - | 165 W/m² | - |
| 1777554025 | 10° C | 78% | 1020.4 hPa | 0 mm | - | 150 W/m² | - |
| 1777553721 | 9.44° C | 80% | 1020.6 hPa | 0 mm | - | 131 W/m² | - |
| 1777553418 | 9.44° C | 80% | 1020.4 hPa | 0 mm | - | 117 W/m² | - |
| 1777553115 | 9.44° C | 82% | 1020.3 hPa | 0 mm | - | 65 W/m² | - |
| 1777552809 | 8.89° C | 83% | 1020.5 hPa | 0 mm | - | 60 W/m² | - |
| 1777552505 | 8.89° C | 83% | 1020.5 hPa | 0 mm | - | 56 W/m² | - |
| 1777552201 | 8.33° C | 85% | 1020.4 hPa | 0 mm | - | 53 W/m² | - |
| 1777551898 | 7.78° C | 86% | 1020.1 hPa | 0 mm | - | 47 W/m² | - |
| 1777551596 | 7.78° C | 86% | 1020.2 hPa | 0 mm | - | 39 W/m² | - |
| 1777551293 | 7.22° C | 88% | 1020 hPa | 0 mm | - | 35 W/m² | - |
| 1777550990 | 6.67° C | 90% | 1019.8 hPa | 0 mm | - | 32 W/m² | - |
| 1777550687 | 6.67° C | 90% | 1019.9 hPa | 0 mm | - | 30 W/m² | - |
| 1777550383 | 6.67° C | 89% | 1020 hPa | 0 mm | - | 29 W/m² | - |
| 1777550079 | 6.67° C | 89% | 1019.9 hPa | 0 mm | - | 27 W/m² | - |
| 1777549776 | 6.11° C | 89% | 1019.8 hPa | 0 mm | - | 24 W/m² | - |
| 1777549471 | 6.11° C | 89% | 1019.9 hPa | 0 mm | - | 23 W/m² | - |
* Rain latest hour (hover to see other rain measurements)
** Current wind speed in m/s (hover to see current wind gust speed)